Find Starlink 34446

NORAD ID: 65495 Int'l Des: 2025-198 Owner: SPXS Country: US Constellation: starlink operational
LEOCIRCULAR

現在のビュー

3D地球を読み込み中...

About Starlink 34446

Starlink 34446 (NORAD 65495) is a starlink constellation satellite (v2 mini) launched Sep 5, 2025 by SPXS of US. It operates in LEO, CIRCULAR orbit with a mass of 575.00 kg.

Starlink 34446について

説明を読み込み中...

次回通過

Passes for default location (London). Set your location on the main map for personalized predictions.

高度履歴

Loading altitude history...

軌道要素

1 65495U 25198D 26194.88651699 .00011314 00000-0 34541-3 0 9998
2 65495 53.1605 44.6652 0001329 98.7144 261.4009 15.34406662 47949
Epoch: Jul 13, 2026 • Age: 12 hours

現在のステータス

高度 475.0 km
遠地点 / 近地点 N/A
速度 7.63 km/s
衛星直下点 -36.55°S, 174.5°W
打ち上げ日 Sep 5, 2025
運用期間 0.8 years
タイプ internet

技術仕様

分類 Payload
質量 575.00 kg
乾燥質量 530.00 kg
総質量 575.00 kg
長さ 0.30 m
直径 4.10 m
スパン 29.00 m
形状 Box + pan
製造者 SPXS
バスタイプ Starlink V2MO
フェーズステータス In Orbit
所有者/国 SPXS/US

Most Searched